Weather History for KE11 - February, 2013

Change the Weather History Date:

Wednesday, February 27, 2013

  Actual Average (KMAF) Record (KMAF)
Temperature  
Mean Temperature 40 °F 51 °F  
Max Temperature 50 °F 66 °F 84 °F (2011)
Min Temperature 31 °F 37 °F 17 °F (1934)
Degree Days  
Heating Degree Days 24 14  
Month to date heating degree days 451  
Since 1 July heating degree days 2223  
Moisture  
Dew Point 21 °F    
Average Humidity 51    
Maximum Humidity 74    
Minimum Humidity 20    
Precipitation  
Precipitation 0.00 in 0.02 in 0.62 in (1990)
Month to date precipitation 0.68  
Year to date precipitation 1.24  
Snow  
Snow 0.00 in - - ()
Month to date snowfall  
Since 1 July snowfall  
Snow Depth -    
Sea Level Pressure  
Sea Level Pressure 30.19 in    
Wind  
Wind Speed 14 mph (North)    
Max Wind Speed 21 mph    
Max Gust Speed 28 mph    
Visibility 10 miles    
Events      
T = Trace of Precipitation, MM = Missing Value Source: NWS Daily Summary

Daily Weather History Graph

Daily Weather History Graph

Search for Another Location

Airport or City:

Trip Planner

Search our weather history database for the weather conditions in past years. The results will help you decide how hot, cold, wet, or windy it might be!

Date:

Astronomy

Feb. 27, 2013 Rise Set
Actual Time 7:19 AM CST 6:46 PM CST
Civil Twilight 6:54 AM CST 7:11 PM CST
Nautical Twilight 6:26 AM CST 7:39 PM CST
Astronomical Twilight 5:58 AM CST 8:07 PM CST
Moon 8:58 PM CST (2/27) 8:05 AM CST (2/27)
Length of Visible Light 12h 16m
Length of Day
11h 26m
Waning Gibbous, 96% of the Moon is Illuminated
Feb 27
Waning Gibbous
Mar 4
Last Quarter
Mar 11
New
Mar 19
First Quarter
Mar 27
Full

Hourly Weather History & Observations

Time (CST) Temp. Windchill Dew Point Humidity Pressure Visibility Wind Dir Wind Speed Gust Speed Precip Events Conditions
12:15 AM 41.7 °F 34.1 °F 16.2 °F 36% 29.96 in 10.0 mi North 15.0 mph - N/A   Clear
12:35 AM 39.7 °F 30.9 °F 22.6 °F 50% 29.96 in 10.0 mi North 17.3 mph 23.0 mph N/A   Clear
12:55 AM 38.5 °F 29.9 °F 23.5 °F 55% 29.97 in 10.0 mi NNW 15.0 mph - N/A   Clear
1:15 AM 37.4 °F 27.5 °F 24.3 °F 59% 29.99 in 10.0 mi NNW 18.4 mph 23.0 mph N/A   Clear
1:35 AM 36.9 °F 26.8 °F 24.4 °F 61% 29.99 in 10.0 mi NNW 18.4 mph - N/A   Clear
1:55 AM 36.5 °F 25.7 °F 23.9 °F 60% 30.01 in 10.0 mi NNW 20.7 mph 25.3 mph N/A   Clear
2:15 AM 35.8 °F 25.4 °F 23.7 °F 62% 30.03 in 10.0 mi NNW 18.4 mph 23.0 mph N/A   Clear
2:35 AM 35.4 °F 24.9 °F 23.5 °F 62% 30.03 in 10.0 mi NNW 18.4 mph - N/A   Clear
2:55 AM 34.7 °F 24.7 °F 23.7 °F 64% 30.04 in 10.0 mi NNW 16.1 mph 23.0 mph N/A   Clear
3:15 AM 34.0 °F 25.5 °F 23.4 °F 65% 30.05 in 10.0 mi NNW 11.5 mph 19.6 mph N/A   Clear
3:35 AM 33.8 °F 23.9 °F 22.8 °F 64% 30.05 in 10.0 mi North 15.0 mph - N/A   Clear
3:55 AM 33.4 °F 23.5 °F 22.3 °F 64% 30.07 in 10.0 mi NNW 15.0 mph - N/A   Clear
4:15 AM 33.3 °F 23.7 °F 23.0 °F 66% 30.07 in 10.0 mi North 13.8 mph - N/A   Clear
4:35 AM 32.9 °F 23.2 °F 24.3 °F 71% 30.08 in 10.0 mi NNW 13.8 mph - N/A   Clear
4:55 AM 32.5 °F 23.7 °F 24.6 °F 73% 30.09 in 10.0 mi NNW 11.5 mph - N/A   Clear
5:15 AM 32.2 °F 24.4 °F 24.6 °F 74% 30.10 in 10.0 mi NNW 9.2 mph - N/A   Clear
5:35 AM 32.2 °F 24.4 °F 24.8 °F 74% 30.12 in 10.0 mi NNW 9.2 mph - N/A   Clear
5:55 AM 32.0 °F 23.6 °F 24.4 °F 74% 30.13 in 10.0 mi NNW 10.4 mph - N/A   Clear
6:15 AM 32.0 °F 24.2 °F 24.3 °F 73% 30.14 in 10.0 mi NNW 9.2 mph - N/A   Clear
6:35 AM 32.0 °F 25.6 °F 24.1 °F 73% 30.15 in 10.0 mi NW 6.9 mph - N/A   Clear
6:55 AM 31.5 °F 24.9 °F 23.7 °F 73% 30.16 in 10.0 mi NW 6.9 mph - N/A   Clear
7:15 AM 31.5 °F 24.2 °F 23.5 °F 73% 30.17 in 10.0 mi NW 8.1 mph - N/A   Clear
7:35 AM 31.5 °F 24.9 °F 23.2 °F 71% 30.18 in 10.0 mi NW 6.9 mph - N/A   Clear
7:55 AM 32.0 °F 25.6 °F 23.4 °F 70% 30.18 in 10.0 mi NNW 6.9 mph - N/A   Clear
8:15 AM 33.6 °F 25.0 °F 23.2 °F 66% 30.20 in 10.0 mi NNW 11.5 mph - N/A   Clear
8:35 AM 35.8 °F 27.8 °F 23.4 °F 61% 30.21 in 10.0 mi North 11.5 mph 18.4 mph N/A   Clear
8:55 AM 38.5 °F 28.9 °F 22.8 °F 53% 30.21 in 10.0 mi North 18.4 mph 26.5 mph N/A   Clear
9:15 AM 39.7 °F 30.3 °F 23.0 °F 51% 30.23 in 10.0 mi North 19.6 mph 27.6 mph N/A   Clear
9:35 AM 40.6 °F 31.2 °F 23.0 °F 49% 30.25 in 10.0 mi North 20.7 mph 24.2 mph N/A   Clear
9:55 AM 41.4 °F 33.0 °F 23.0 °F 48% 30.25 in 10.0 mi North 17.3 mph 24.2 mph N/A   Clear
10:15 AM 42.8 °F 34.3 °F 23.0 °F 46% 30.26 in 10.0 mi North 19.6 mph 25.3 mph N/A   Clear
10:35 AM 43.2 °F 35.3 °F 23.2 °F 45% 30.25 in 10.0 mi North 17.3 mph 21.9 mph N/A   Clear
10:55 AM 44.6 °F 37.2 °F 23.4 °F 43% 30.26 in 10.0 mi North 17.3 mph 24.2 mph N/A   Clear
11:15 AM 45.0 °F 37.1 °F 22.8 °F 42% 30.26 in 10.0 mi North 19.6 mph - N/A   Clear
11:35 AM 45.7 °F 38.6 °F 23.4 °F 41% 30.27 in 10.0 mi North 17.3 mph 25.3 mph N/A   Clear
11:55 AM 46.9 °F - 22.1 °F 38% 30.27 in 10.0 mi North 15.0 mph 24.2 mph N/A   Clear
12:15 PM 47.3 °F - 22.1 °F 37% 30.26 in 10.0 mi North 13.8 mph 24.2 mph N/A   Clear
12:55 PM 48.6 °F - 22.5 °F 36% 30.25 in 10.0 mi NE 17.3 mph 23.0 mph N/A   Clear
1:15 PM 48.9 °F - 21.6 °F 34% 30.25 in 10.0 mi North 10.4 mph 21.9 mph N/A   Clear
1:35 PM 49.3 °F - 20.7 °F 32% 30.24 in 10.0 mi North 17.3 mph 23.0 mph N/A   Scattered Clouds
2:15 PM 49.8 °F - 17.4 °F 28% 30.23 in 10.0 mi North 15.0 mph 24.2 mph N/A   Clear
2:35 PM 50.4 °F - 16.3 °F 26% 30.22 in 10.0 mi NNE 12.7 mph 21.9 mph N/A   Clear
2:55 PM 50.5 °F - 13.5 °F 23% 30.22 in 10.0 mi North 11.5 mph 23.0 mph N/A   Clear
3:15 PM 50.4 °F - 12.2 °F 22% 30.22 in 10.0 mi NNE 12.7 mph 17.3 mph N/A   Clear
3:35 PM 50.4 °F - 12.0 °F 22% 30.21 in 10.0 mi NNE 15.0 mph 23.0 mph N/A   Clear
3:55 PM 50.0 °F - 12.2 °F 22% 30.21 in 10.0 mi North 15.0 mph 20.7 mph N/A   Clear
4:15 PM 50.4 °F - 9.9 °F 20% 30.21 in 10.0 mi NNE 16.1 mph 19.6 mph N/A   Clear
4:35 PM 49.1 °F - 13.1 °F 24% 30.21 in 10.0 mi NE 12.7 mph - N/A   Clear
4:55 PM 48.9 °F - 13.5 °F 24% 30.22 in 10.0 mi NNE 10.4 mph 18.4 mph N/A   Clear
5:15 PM 48.6 °F - 15.6 °F 27% 30.22 in 10.0 mi NNE 13.8 mph 17.3 mph N/A   Clear
5:35 PM 48.4 °F - 19.0 °F 31% 30.22 in 10.0 mi NNE 13.8 mph 20.7 mph N/A   Clear
5:55 PM 47.1 °F - 18.1 °F 32% 30.22 in 10.0 mi NNE 11.5 mph 16.1 mph N/A   Clear
6:15 PM 46.4 °F 41.5 °F 18.9 °F 33% 30.23 in 10.0 mi NNE 10.4 mph - N/A   Clear
6:35 PM 44.8 °F 38.7 °F 20.1 °F 37% 30.24 in 10.0 mi NE 12.7 mph - N/A   Clear
6:55 PM 43.0 °F 38.2 °F 21.2 °F 42% 30.24 in 10.0 mi NE 8.1 mph - N/A   Clear
7:15 PM 41.7 °F 37.3 °F 21.2 °F 44% 30.25 in 10.0 mi NE 6.9 mph - N/A   Clear
7:35 PM 40.1 °F 36.1 °F 20.8 °F 46% 30.26 in 10.0 mi NE 5.8 mph - N/A   Clear
8:15 PM 37.4 °F 32.1 °F 21.0 °F 52% 30.27 in 10.0 mi NE 6.9 mph - N/A   Clear
8:35 PM 36.9 °F 32.2 °F 21.2 °F 53% 30.28 in 10.0 mi NE 5.8 mph - N/A   Clear
8:55 PM 36.1 °F 31.4 °F 21.6 °F 56% 30.27 in 10.0 mi NE 5.8 mph - N/A   Clear
9:15 PM 35.6 °F 31.7 °F 21.9 °F 58% 30.27 in 10.0 mi NE 4.6 mph - N/A   Clear
9:35 PM 34.7 °F 30.6 °F 21.7 °F 59% 30.28 in 10.0 mi ENE 4.6 mph - N/A   Clear
9:55 PM 34.7 °F 29.6 °F 21.9 °F 60% 30.29 in 10.0 mi NE 5.8 mph - N/A   Clear
10:15 PM 33.3 °F 27.1 °F 21.7 °F 63% 30.29 in 10.0 mi NE 6.9 mph - N/A   Clear
10:35 PM 32.9 °F 26.7 °F 22.1 °F 65% 30.29 in 10.0 mi NE 6.9 mph - N/A   Clear
10:55 PM 32.0 °F 25.6 °F 22.5 °F 68% 30.29 in 10.0 mi NE 6.9 mph - N/A   Clear
11:15 PM 32.0 °F 24.8 °F 22.5 °F 68% 30.29 in 10.0 mi NE 8.1 mph - N/A   Clear
11:35 PM 32.0 °F 25.6 °F 22.5 °F 68% 30.29 in 10.0 mi NE 6.9 mph - N/A   Clear
11:55 PM 31.1 °F 26.4 °F 22.3 °F 70% 30.29 in 10.0 mi NNE 4.6 mph - N/A   Clear